Regional Weather Roundup
Issued by NWS Northern Indiana

Home | Current Version | Previous Version | Text Only | Print | Product List | Glossary Off
Versions: 1 2 3 4 5 6 7 8 9 10 11 12 13 14 15 16 17 18 19 20 21 22 23 24 25 26 27 28 29 30 31 32 33 34 35 36 37 38 39 40 41 42 43 44 45 46 47 48 49 50

000
ASUS43 KIWX 280500
RWRIWX

KIWX WEATHER ROUNDUP
NATIONAL WEATHER SERVICE NORTHERN INDIANA
100 AM EDT WED JUN 28 2017

NOTE: "FAIR" INDICATES FEW OR NO CLOUDS BELOW 12,000 FEET WITH NO
SIGNIFICANT WEATHER AND/OR OBSTRUCTIONS TO VISIBILITY.

* THESE STATIONS ARE NOT UNDER NWS QUALITY CONTROL. THEY ALSO MAY NOT
  REPORT WEATHER SUCH AS PRECIPITATION OR FOG.

INZ001>027-280600-
NORTHERN INDIANA

CITY           SKY/WX    TMP DP  RH WIND       PRES   REMARKS
MICHIGAN CITY* PTCLDY    61  45  55 SE3       30.07S
SOUTH BEND     CLEAR     56  46  69 CALM      30.09R
GOSHEN         CLEAR     53  46  77 CALM      30.09S
MONTICELLO*    CLEAR     62  48  61 S5        30.09S
FORT WAYNE     PTCLDY    58  51  78 CALM      30.11S
PERU/GRISSOM   CLEAR     58  51  77 S7        30.09S

$$
INZ028>050-280600-
CENTRAL INDIANA

CITY           SKY/WX    TMP DP  RH WIND       PRES   REMARKS
LAFAYETTE      CLEAR     55  51  86 CALM      30.09S
KOKOMO*        CLEAR     59  51  75 S7        30.12S
MUNCIE*        CLEAR     61  48  62 S5        30.12R
INDIANAPOLIS   PTCLDY    65  47  52 CALM      30.11S

$$
MIZ043>046-050>051-056>058-064>065-071>073-077>080-280600-
SOUTHWEST LOWER MICHIGAN

CITY           SKY/WX    TMP DP  RH WIND       PRES   REMARKS
BATTLE CREEK   CLEAR     55  47  74 SW3       30.08S
BENTON HARBOR  CLEAR     58  45  62 SE3       30.07R
COLDWATER*     CLEAR     51  48  87 CALM      30.09S
HILLSDALE*     CLEAR     50  45  81 CALM      30.10R
HOLLAND        CLEAR     56  48  74 S6        30.06S
GRAND RAPIDS   CLEAR     54  50  86 S7        30.06S
KALAMAZOO      CLEAR     54  47  77 S3        30.08S
STURGIS*       CLEAR     54  47  76 CALM      30.09R
THREE RIVERS*  FAIR      53  48  83 CALM      30.09S

$$
OHZ001>008-015>018-024>025-280600-
NORTHWEST OHIO

CITY           SKY/WX    TMP DP  RH WIND       PRES   REMARKS
DEFIANCE       CLEAR     53  49  86 CALM      30.10R
FINDLAY        CLEAR     57  48  72 S7        30.10R
TOLEDO EXPRESS CLEAR     53  50  89 CALM      30.09R
TOLEDO METCALF CLEAR     61  51  70 SW5       30.09S
LIMA           CLEAR     58  49  72 S8        30.12R

$$
AND FOR LAKE MICHIGAN COASTAL AND OPEN LAKE BUOY OBSERVATIONS

STATION/POSITION TEMP    WIND        PRES    VSBY  WAVE
                 AIR SEA DIR/SP/G                  HT/PER
                 (F)     (DEG/KT/KT) (MB)    (MI)  (FT/S)
CALUMET HARBOR    67     160/  5/  7 1017.1R
MICHIGAN CITY     64     130/  7/  8   N/A
BURNS HARBOR      66     190/  8/ 10 1018.3R
SOUTH LAKE BUOY   64 61  160/ 10/ 12 1016.9          1/ 3
4 MI NW BRIDGMAN  67 69  170/ 12/ 14 1018.0R         1
MICHIGAN CITY     65 66  160/ 10/ 12   N/A           1

$$
&&




USA.gov is the U.S. government's official web portal to all federal, state and local government web resources and services.